SL-8 DEB *, 3045

Orbit data source: Space-Track

SL-8 DEB *, 3045 is space debris in LEO originally from a launch on Fri, 03 Sep 1965 UTC launched from the Tyuratam Missile And Space Complex (TTMTR). Debris objects in space refer to the collection of defunct objects orbiting the Earth. Examples of debris include non-operational satellites, rocket bodies, and fragments generated from explosions, collisions, or faulty payload assembly.

Loading next visibility...
Identifier
3045, 1965-070G
Orbit
LEO
Country
Flag of CISCIS
Related business
Manufacturer
Unknown
Mission
Spacecraft
Bus & Motor
Unknown
Mass
Unknown
Launch date (UTC)
1965-09-03 (61 years ago)
Launch vehicle
Unknown
Launch site
Tyuratam Missile And Space Complex (TTMTR)
Object type
Payload
Rocket body
Debris
Shape & HBR
Unknown shape, 0.1 m
Radar Cross Section
Small (<0.1 m²)

Expand to show TLE details & history
Last TLE update: 18 hours ago

TLE from 18 hours ago
0 SL-8 DEB *
1 03045U 65070G   26119.99292854  .00000771  00000-0  52563-2 0  9995
2 03045  55.4321  11.8379 0291787  90.1949   7.0883 12.44624944682933
Epoch: 2026-04-29T23:49Z
TLE epoch observation values (Epoch: 2026-04-29T23:49:49.025Z)
Latitude
54.82235°
Longitude
-100.1253°
Altitude
1,266.7 km
Speed
7.332 km/s
True Right ascension
07h 41m 05s
True Declination
54° 40' 16"
Sunlit
Object was in daylight at epoch
Visualization orbit readout
Latitude
Unknown
Longitude
Unknown
Altitude
Unknown
Speed
Unknown
Apparent Right ascension
Unknown
Apparent Declination
Unknown
Sunlit
N/A
Visualization observer readout
Local Sidereal Time
01:35:56
Azimuth
Unknown
Elevation
Unknown
Doppler factor
Unknown
Orbital elements
Apogee altitude
1,716.461 km
Perigee altitude
1,257.474 km
Semi-major axis
7,865.104 km
Eccentricity
0.02918
Inclination
55.4321°
RAAN
11.8379°
Arg. of periapsis
90.1949°
True anomaly
7.51637°
Mean anomaly
7.0883°
Eccentric anomaly
7.30075°
Mean motion
3.11162 °/min
Orbital period
115.7 mins
BSTAR
0.0052563
Loading maneuver chart data...
Computing Atmospheric mass density...
Loading historical data...
Loading historical data...
Loading historical data...
Loading historical data...
Loading historical data...
Loading historical data...
Loading historical data...
Other satellites on launch #70 in the year 1965 (1965-09-03 UTC)

Documentation

Showing up to 5 results
|